Regional Weather Roundup
Issued by NWS

Home | Current Version | Previous Version | Graphics & Text | Print | Product List | Glossary On
Versions: 1 2 3 4 5 6 7 8 9 10 11 12 13 14 15 16 17 18 19 20 21 22 23 24 25 26 27 28
000
ASUS45 KSLC 231210
RWRUT

UTAH REGIONAL WEATHER ROUNDUP
NATIONAL WEATHER SERVICE SALT LAKE CITY UT
500 AM MST FRI FEB 23 2018

UTZ001>011-023>025-231300-

NORTHERN UTAH

CITY           SKY/WX    TMP DP  RH WIND       PRES   REMARKS
BRIGHAM CITY   CLOUDY    26  22  87 N7        29.95S WCI  18
HILL AFB       CLOUDY    23  19  86 NE8       29.90S BLWGSNOWWCI  14
LOGAN          LGT SNOW  21  15  78 CALM      29.96S
OGDEN          LGT SNOW  26  23  88 CALM      29.91S FOG
SALT LAKE CITY CLOUDY    29  23  78 NW3       29.91S
TOOELE VALLEY  LGT SNOW  25  25 100 CALM      29.93R
WENDOVER       CLOUDY    22  14  71 W12       29.98R WCI  10
HEBER CITY       N/A     18  14  86 CALM      29.86S
WEST JORDAN    CLOUDY    25  25 100 NW5       29.91S WCI  19

$$

UTZ011>015-024>027-231300-

CENTRAL/NORTHEAST UTAH

CITY           SKY/WX    TMP DP  RH WIND       PRES   REMARKS
PROVO AIRPORT  CLOUDY    29  19  66 CALM      29.90F
MOAB/CANYONLAN MOCLDY    28  20  71 E9        29.90F WCI  19
DELTA          CLOUDY    25  23  93 CALM      29.89S VSB 3/4
PRICE          FLURRIES  23  21  92 E8        29.86F WCI  14
RICHFIELD      CLOUDY    25  25 100 CALM      29.87F FOG
VERNAL         LGT SNOW  22  19  89 NW6       29.95R FOG     WCI  14

$$

UTZ013>016-019>022-027-231300-

SOUTHERN UTAH

CITY           SKY/WX    TMP DP  RH WIND       PRES   REMARKS
BRYCE CANYON   MOCLDY    12  10  92 S8        29.84S WCI   0
CEDAR CITY     CLOUDY    23  20  88 S8        29.88S WCI  14
MILFORD        MOCLDY    24  21  88 S12       29.88S WCI  13
ST GEORGE      CLOUDY    31  30  96 SE6       29.99R WCI  25
HANKSVILLE     CLOUDY    32  27  80 NE3       29.94R
KANAB          CLEAR     21  19  93 NE3       29.98R
BLANDING         N/A     22  10  60 E6        30.03S WCI  15

$$

REGIONAL REPORTS     COLORADO/ARIZONA

CITY           SKY/WX    TMP DP  RH WIND       PRES   REMARKS
CRAIG, CO      CLOUDY    14   9  80 CALM      29.95S
GRAND JUNCTION PTCLDY    26  22  84 E15       29.95F WCI  14
RIFLE, CO      CLOUDY    23  22  96 CALM      29.98S
MONTROSE, CO   MOCLDY    24  14  65 E7        30.00S WCI  16
CORTEZ, CO     CLEAR     18   8  65 CALM      30.00F
COLORADO CITY    N/A     19  16  86 CALM      29.96S
PAGE, AZ       LGT SNOW  31  30  96 NW9       29.96R VSB 3/4 WCI  23
GRAND CANYON   SNOW      24  23  96 SW15G23   29.92S VSB 1/2 WCI  11
KINGMAN, AZ    CLOUDY    39  25  57 SW10      30.00F WCI  32
FLAGSTAFF, AZ  FLURRIES  24  17  74 SW17G25   29.94F WCI  11

$$

REGIONAL REPORTS    NEVADA/IDAHO/WYOMING

CITY           SKY/WX    TMP DP  RH WIND       PRES   REMARKS
LAS VEGAS, NV  PTCLDY    42  18  37 SW9       29.96S
ELY, NY        CLOUDY     4   1  88 SE5       29.89R WCI  -5
ELKO, NV       FLURRIES  16  13  88 CALM      29.97R
POCATELLO, ID  PTCLDY    11   7  84 S6        30.04R WCI   1
BURLEY, ID     PTCLDY     7   2  80 SW8       30.05R WCI  -6
EVANSTON, WY   CLOUDY     6   2  83 E14       29.85S WCI -11
ROCK SPRINGS,  CLOUDY     4   0  83 NE6       29.90S FOG     WCI  -7

$$




USA.gov is the U.S. government's official web portal to all federal, state and local government web resources and services.